Flag for U.S.A. Weather past 2 weeks in Lancaster, California, U.S.A.

Now
74 °F

Clear.


Feels Like: 77 °F
Forecast: 68 / 90 °F
Wind: 15 mph from Southwest

Location: Lancaster / Fox Field

Current Time: Aug 21, 2014 at 11:31:11 PM

Latest Report: Aug 21, 2014 at 10:56 PM


Visibility: 10 mi

Pressure: 29.94 "Hg

Humidity: 52%

Dew point: 55 °F

Location of LancasterLocation

Historic Weather in Lancaster — Graph

°F

Lancaster temperature yesterday

Maximum temperature yesterday: 87 °F (at 1:56 PM)
Minimum temperature yesterday: 60 °F (at 5:56 AM)
Average temperature yesterday: 73 °F

Past Weeks' High & Low Weather Summary

 TemperatureHumidityPressure
High101 °F (Aug 17, 1:56 PM)72% (Aug 20, 6:56 AM)30.02 "Hg (Aug 20, 6:56 AM)
Low60 °F (Aug 20, 5:56 AM)6% (Aug 17, 1:56 PM)29.74 "Hg (Aug 18, 4:56 PM)
Average81 °F30%29.90 "Hg
* Reported Aug 6 9:56 PM — Aug 21 9:56 PM, Lancaster, Weather by CustomWeather, © 2014

Note: Actual official high and low records may vary slightly from our data, if they occured in-between our weather recording intervals... More about our weather records

Advertising

Lancaster weather history for previous 24 hours

 ConditionsComfort  
Time TempWeatherWind HumidityBarometerVisibility
9:56 PM
Aug 21
75 °FClear.16 mph50%29.93 "Hg10 mi
8:56 PM76 °FClear.17 mph48%29.92 "Hg10 mi
7:56 PM79 °FSunny.16 mph42%29.89 "Hg10 mi
6:56 PM84 °FSunny.20 mph31%29.88 "Hg10 mi
5:56 PM87 °FSunny.18 mph24%29.87 "Hg10 mi
4:56 PM89 °FSunny.18 mph24%29.86 "Hg10 mi
3:56 PM91 °FSunny.18 mph24%29.86 "Hg10 mi
2:56 PM89 °FScattered clouds.No wind24%29.87 "Hg10 mi
1:56 PM90 °FSunny.No wind23%29.90 "Hg10 mi
12:56 PM88 °FSunny.5 mph24%29.92 "Hg10 mi
11:56 AM87 °FSunny.No wind25%29.93 "Hg10 mi
10:56 AM82 °FSunny.3 mph31%29.95 "Hg10 mi
9:56 AM78 °FSunny.No wind35%29.96 "Hg10 mi
8:56 AM73 °FSunny.No wind43%29.96 "Hg10 mi
7:56 AM68 °FSunny.No wind45%29.96 "Hg10 mi
6:56 AM63 °FClear.No wind52%29.94 "Hg10 mi
5:56 AM63 °FClear.No wind58%29.91 "Hg10 mi
4:56 AM63 °FClear.9 mph54%29.90 "Hg10 mi
3:56 AM63 °FClear.5 mph50%29.91 "Hg10 mi
2:56 AM66 °FClear.7 mph47%29.90 "Hg10 mi
1:56 AM68 °FClear.8 mph44%29.90 "Hg10 mi
12:56 AM70 °FClear.8 mph42%29.90 "Hg10 mi
11:56 PM
Aug 20
70 °FClear.10 mph44%29.91 "Hg10 mi
Weather by CustomWeather, © 2014

See weather overviewHow to use our weather pages